Weather History for KICR - May, 2013

Change the Weather History Date:

Saturday, May 4, 2013

  Actual Average Record
Temperature  
Mean Temperature 40 °F 54 °F  
Max Temperature 55 °F 66 °F 72 °F (2015)
Min Temperature 24 °F 43 °F 24 °F (2013)
Degree Days  
Heating Degree Days 25 11  
Month to date heating degree days 94 46  
Since 1 July heating degree days 6496 6450  
Cooling Degree Days 0 0  
Month to date cooling degree days 0 0  
Year to date cooling degree days 2 2  
Moisture  
Dew Point 22 °F    
Average Humidity 56    
Maximum Humidity 85    
Minimum Humidity 26    
Precipitation  
Precipitation 0.00 in 0.12 in 0.60 in (2012)
Month to date precipitation T 0.49  
Year to date precipitation 1.46 5.12  
Sea Level Pressure  
Sea Level Pressure 30.25 in    
Wind  
Wind Speed 11 mph (North)    
Max Wind Speed 25 mph    
Max Gust Speed 32 mph    
Visibility 10 miles    
Events      
T = Trace of Precipitation, MM = Missing Value Source: NWS Daily Summary

Daily Weather History Graph

Daily Weather History Graph

Search for Another Location

Airport or City:

Trip Planner

Search our weather history database for the weather conditions in past years. The results will help you decide how hot, cold, wet, or windy it might be!

Date:

Astronomy

May. 04, 2013 Rise Set
Actual Time 6:27 AM CDT 8:45 PM CDT
Civil Twilight 5:56 AM CDT 9:16 PM CDT
Nautical Twilight 5:17 AM CDT 9:56 PM CDT
Astronomical Twilight 4:33 AM CDT 10:40 PM CDT
Moon 3:36 AM CDT (5/4) 3:36 PM CDT (5/4)
Length of Visible Light 15h 20m
Length of Day
14h 17m
Waning Crescent, 27% of the Moon is Illuminated
May 4
Waning Crescent
May 9
New
May 17
First Quarter
May 24
Full
May 31
Last Quarter

Hourly Weather History & Observations

Time (CDT) Temp. Windchill Dew Point Humidity Pressure Visibility Wind Dir Wind Speed Gust Speed Precip Events Conditions
12:53 AM 32.0 °F 27.5 °F 16.0 °F 52% 30.25 in 10.0 mi NNW 4.6 mph - N/A   Clear
1:53 AM 32.0 °F 27.5 °F 18.0 °F 56% 30.24 in 10.0 mi NW 4.6 mph - N/A   Clear
2:53 AM 30.9 °F - 18.0 °F 59% 30.23 in 10.0 mi Calm Calm - N/A   Clear
3:53 AM 25.0 °F 17.1 °F 17.1 °F 72% 30.23 in 10.0 mi West 6.9 mph - N/A   Clear
4:53 AM 26.1 °F 18.4 °F 19.0 °F 75% 30.24 in 10.0 mi WNW 6.9 mph - N/A   Clear
5:53 AM 25.0 °F 17.1 °F 19.0 °F 78% 30.25 in 10.0 mi WNW 6.9 mph - N/A   Clear
6:53 AM 25.0 °F 17.1 °F 19.9 °F 81% 30.26 in 10.0 mi WNW 6.9 mph - N/A   Clear
7:53 AM 28.9 °F 21.1 °F 24.1 °F 82% 30.26 in 10.0 mi NW 8.1 mph - N/A   Clear
8:53 AM 36.0 °F 27.5 °F 27.0 °F 70% 30.27 in 10.0 mi NNW 12.7 mph - N/A   Clear
9:53 AM 43.0 °F 36.0 °F 26.1 °F 51% 30.27 in 10.0 mi North 13.8 mph - N/A   Clear
10:53 AM 46.9 °F - 25.0 °F 42% 30.27 in 10.0 mi North 16.1 mph 25.3 mph N/A   Clear
11:53 AM 48.9 °F - 23.0 °F 36% 30.26 in 10.0 mi North 16.1 mph 24.2 mph N/A   Clear
12:53 PM 52.0 °F - 21.0 °F 30% 30.25 in 10.0 mi North 20.7 mph - N/A   Scattered Clouds
1:53 PM 53.1 °F - 21.9 °F 30% 30.25 in 10.0 mi North 17.3 mph 25.3 mph N/A   Overcast
2:53 PM 54.0 °F - 19.9 °F 26% 30.23 in 10.0 mi NNE 20.7 mph 27.6 mph N/A   Overcast
3:53 PM 53.1 °F - 19.0 °F 26% 30.24 in 10.0 mi NNE 18.4 mph - N/A   Mostly Cloudy
4:53 PM 53.1 °F - 19.0 °F 26% 30.23 in 10.0 mi NNE 16.1 mph 25.3 mph N/A   Overcast
5:53 PM 52.0 °F - 19.0 °F 27% 30.24 in 10.0 mi NNE 19.6 mph - N/A   Overcast
6:53 PM 51.1 °F - 19.0 °F 28% 30.25 in 10.0 mi NNE 16.1 mph - N/A   Mostly Cloudy
7:53 PM 48.9 °F - 21.0 °F 33% 30.25 in 10.0 mi NE 13.8 mph - N/A   Partly Cloudy
8:53 PM 46.0 °F 41.4 °F 28.0 °F 50% 30.26 in 10.0 mi NE 9.2 mph - N/A   Mostly Cloudy
9:53 PM 45.0 °F 41.8 °F 30.0 °F 56% 30.27 in 10.0 mi ENE 5.8 mph - N/A   Mostly Cloudy
10:53 PM 44.1 °F 41.5 °F 30.9 °F 60% 30.27 in 10.0 mi NE 4.6 mph - N/A   Overcast
11:53 PM 44.1 °F 41.5 °F 30.9 °F 60% 30.27 in 10.0 mi NNE 4.6 mph - N/A   Overcast